Flag for Canada Weather past 2 weeks in London, Ontario, Canada

Now
23 °F

Mostly cloudy.


Feels Like: 10 °F
Forecast: 16 / 28 °F
Wind: 15 mph from North

Location: London Weather Station

Current Time: Mar 27, 2015 at 1:43:29 PM

Latest Report: Mar 27, 2015 at 1:00 PM


Visibility: 15 mi

Pressure: 29.98 "Hg

Humidity: 68%

Dew point: 14 °F

Location of LondonLocation

Historic Weather in London — Graph

°F

London temperature yesterday

Maximum temperature yesterday: 39 °F (at 12:00 AM)
Minimum temperature yesterday: 34 °F (at 10:00 AM)
Average temperature yesterday: 36 °F

Past Weeks' High & Low Weather Summary

 TemperatureHumidityPressure
High50 °F (Mar 16, 4:00 PM)100% (Mar 13, 11:00 PM)30.65 "Hg (Mar 13, 11:00 PM)
Low16 °F (Mar 19, 7:00 AM)32% (Mar 20, 1:00 PM)29.70 "Hg (Mar 17, 1:00 AM)
Average32 °F74%30.12 "Hg
* Reported Mar 12 12:00 Noon — Mar 27 12:00 Noon, London, Weather by CustomWeather, © 2015

Note: Actual official high and low records may vary slightly from our data, if they occured in-between our weather recording intervals... More about our weather records

Advertising

London weather history for previous 24 hours

 ConditionsComfort  
Time TempWeatherWind HumidityBarometerVisibility
12:00 PM
Fri, Mar 27
23 °FSnow flurries. Partly sunny.16 mph74%29.96 "Hg15 mi
11:00 AM23 °FLight snow. More clouds than sun.14 mph86%29.96 "Hg9 mi
10:00 AM25 °FLight snow. Overcast.10 mph86%29.93 "Hg15 mi
9:00 AM23 °FLight snow. Overcast.12 mph86%29.92 "Hg15 mi
8:00 AM23 °FLight snow. Passing clouds.14 mph86%29.92 "Hg15 mi
7:00 AM23 °FLight snow. Overcast.14 mph93%29.92 "Hg15 mi
6:00 AM25 °FLight snow. Overcast.13 mph86%29.92 "Hg12 mi
5:00 AM27 °FLight snow. Overcast.10 mph86%29.91 "Hg15 mi
4:00 AM27 °FLight snow. Mostly cloudy.10 mph86%29.90 "Hg12 mi
3:00 AM28 °FLight snow. Mostly cloudy.12 mph86%29.89 "Hg8 mi
2:00 AM30 °FLight snow. Mostly cloudy.14 mph86%29.90 "Hg3 mi
1:00 AM30 °FLight snow. Overcast.10 mph93%29.89 "Hg15 mi
12:00 AM32 °FLight snow. Passing clouds.9 mph87%29.88 "Hg15 mi
11:00 PM
Thu, Mar 26
34 °FLight snow. Overcast.7 mph81%29.89 "Hg15 mi
10:47 PM34 °FLight snow. Overcast.8 mph81%29.89 "Hg15 mi
10:00 PM34 °FOvercast.7 mph81%29.89 "Hg15 mi
9:00 PM34 °FOvercast.3 mph81%29.89 "Hg15 mi
8:00 PM36 °FMore clouds than sun.2 mph75%29.86 "Hg15 mi
7:00 PM36 °FOvercast.6 mph81%29.85 "Hg15 mi
6:00 PM37 °FMostly cloudy.7 mph75%29.84 "Hg15 mi
5:00 PM37 °FOvercast.5 mph75%29.82 "Hg15 mi
4:00 PM37 °FMostly cloudy.6 mph81%29.81 "Hg15 mi
3:00 PM37 °FOvercast.6 mph75%29.81 "Hg15 mi
2:00 PM37 °FMore clouds than sun.7 mph87%29.82 "Hg8 mi
1:49 PM37 °FMore clouds than sun.6 mph87%29.82 "Hg10 mi
1:00 PM37 °FLow clouds.7 mph87%29.83 "Hg12 mi
Weather by CustomWeather, © 2015

See weather overviewHow to use our weather pages